Location: Écuvilly
(49.6505°N, 2.9206°E)
Time: 16:48:40
(UTC+00:00)

Resurs 01 Rocket - Pass Details

Date: 17 November 2025
Orbit: 626 x 637 km, 97.7° (Epoch: 09 December)

Event Time Altitude Azimuth Distance (km) Brightness Sun altitude
Exits shadow 17:08:57 11° 46° (NE) 1,937 3.6 -10.7°
Drops below altitude 10° 17:09:51 10° 34° (NE) 2,035 3.8 -10.8°
Sets 17:13:28 0° 3° (N) 2,949 4.8 -11.4°
